Tracking 17145 objects as of 30-May-2015
HD Live streaming from Space Station

TDRS 3

Track TDRS 3 now!
TDRS 3 is classified as:


NORAD ID: 19548
Int'l Code: 1988-091B
Perigee: 35,634.0 km
Apogee: 35,953.7 km
Inclination: 14.6 °
Period: 1,436.1 minutes
Semi major axis: 42164 km
RCS: 38.9601 m2 (large)
Launch date: September 29, 1988
Source: United States (US)

Backup; still partially operational.
Your satellite tracking list
Your tracking list is empty





NASA's NSSDC Master Catalog

Two Line Element Set (TLE):
1 19548U 88091B   15148.55141656 -.00000301  00000-0  00000+0 0  9999
2 19548 014.6169 016.2550 0037909 307.2279 058.6141 01.00271335 84888

Source of the keplerian elements: AFSPC

N2YO: 281